STARLINK-35045

Last updated on Tue Sep 16 2025 00:02:08 GMT+0000 (Coordinated Universal Time)

1 65439U 25194F 25258.02274846 .00399854 00000+0 21741-2 0 9997 2 65439 97.5978 109.3474 0002712 355.3470 4.7770 15.78894584 3097
UTC large
Height (km)
Speed (km/s)
/
Latitude / Longitude
Inclination (degrees)
Orbital Period (minutes)
Azimuth
Elevation
Range (km)
Doppler Factor

Next 0 passes for location: London (51.5072 / 0.1276)

Sorry there are no passes over London.